AO-07 1 07530U 74089B 17019.10121804 -.00000030 00000-0 88974-4 0 9992 2 07530 101.6092 350.8547 0011747 251.7138 240.6988 12.53625040930170 UO-11 1 14781U 84021B 17018.90641175 .00000078 00000-0 15970-4 0 9997 2 14781 097.7201 069.9446 0007834 338.0895 021.9983 14.82848911747225 LO-19 1 20442U 90005G 17018.84589743 .00000001 00000-0 16606-4 0 9995 2 20442 098.5639 316.9782 0010894 225.5177 134.5117 14.32845862410179 HUBBLE 1 20580U 90037B 17019.83925012 .00000534 00000-0 22017-4 0 9990 2 20580 28.4695 267.6896 0002766 21.2293 58.7548 15.08649070267850 MET-2/21 1 22782U 93055A 17019.81365848 .00000094 00000-0 71296-4 0 9996 2 22782 82.5508 141.3370 0023544 125.8064 28.2371 13.83797788181176 AO-27 1 22825U 93061C 17019.50600279 .00000008 00000-0 20628-4 0 9995 2 22825 98.7916 343.4308 0009254 50.2564 309.9432 14.29983192216151 IO-26 1 22826U 93061D 17019.50117054 .00000016 00000-0 23840-4 0 9998 2 22826 98.7859 343.5254 0009673 41.5285 318.6631 14.30310601216325 FO-29 1 24278U 96046B 17018.94309284 -.00000020 00000-0 16332-4 0 9996 2 24278 098.5827 281.8988 0350542 004.1364 356.2544 13.53074093008445 NOAA-15 1 25338U 98030A 17019.51103729 .00000028 00000-0 30762-4 0 9999 2 25338 98.7846 30.1069 0009597 279.4562 80.5533 14.25773846971816 GO-32 1 25397U 98043D 17019.82662792 -.00000000 00000-0 18696-4 0 9995 2 25397 98.5943 325.4196 0002371 79.0625 281.0820 14.23613167962684 ISS 1 25544U 98067A 17019.96155885 .00002112 00000-0 39221-4 0 9992 2 25544 51.6447 57.2358 0007738 100.8097 329.0141 15.54091875 38702 NO-44 1 26931U 01043C 17019.04095073 -.00000017 00000-0 25280-4 0 9995 2 26931 67.0519 116.0097 0006558 281.5435 78.4929 14.30443500799016 SO-50 1 27607U 02058C 17019.55117779 .00000019 00000-0 23410-4 0 9991 2 27607 64.5538 219.7504 0041838 161.2477 199.0178 14.75272167757180 CO-55 1 27844U 03031E 17019.47075899 .00000052 00000-0 43360-4 0 9996 2 27844 98.6916 30.6323 0010634 60.8551 299.3689 14.22009199703184 CO-57 1 27848U 03031J 17019.00813919 .00000028 00000-0 32442-4 0 9994 2 27848 98.7010 30.3701 0010628 70.3510 289.8813 14.21627582703000 RS-22 1 27939U 03042A 17019.86582126 .00000154 00000-0 36163-4 0 9998 2 27939 97.9152 169.5965 0012471 342.7166 178.8818 14.66511871711572 NOAA-18 1 28654U 05018A 17019.49468206 -.00000005 00000-0 22627-4 0 9995 2 28654 99.1925 38.0001 0015082 126.9402 233.3153 14.12322204601271 CO-58 1 28895U 05043F 17019.45417343 .00000177 00000-0 43009-4 0 9998 2 28895 97.8461 188.7550 0015645 252.8931 107.0559 14.63329240598737 CO-65 1 32785U 08021C 17018.87291862 .00000253 00000-0 33379-4 0 9995 2 32785 97.5813 49.8565 0011918 307.0266 52.9860 14.87776955472698 AAUSAT2 1 32788U 08021F 17018.58524334 .00000837 00000-0 84323-4 0 9992 2 32788 097.5781 060.0746 0010559 270.5366 089.4644 14.93642984473244 DO-64 1 32789U 08021G 17019.38605493 .00002072 00000-0 15298-3 0 9995 2 32789 97.5792 80.6526 0012038 245.0235 114.9741 15.04294135474491 CO-66 1 32791U 08021J 17019.50845943 .00000465 00000-0 53628-4 0 9992 2 32791 97.5803 54.3553 0012113 289.4499 70.5410 14.90063966473009 RS-30 1 32953U 08025A 17019.54723854 .00000033 00000-0 16868-3 0 9991 2 32953 82.5055 332.0924 0017785 250.2235 109.6927 12.43074524392953 PRISM 1 33493U 09002B 17019.83246110 .00000077 00000-0 12795-4 0 9998 2 33493 98.1876 255.8335 0014376 209.0012 151.0404 14.95413024433603 NOAA-19 1 33591U 09005A 17019.54989108 .00000121 00000-0 90779-4 0 9997 2 33591 99.0723 344.4313 0013640 334.2359 25.8131 14.12145812409673 TISAT-1 1 36799U 10035E 17019.76051497 .00000476 00000-0 55112-4 0 9995 2 36799 98.0456 139.6747 0013823 95.0725 265.2070 14.90192969353687 JUGNU 1 37839U 11058B 17018.88553236 .00000300 00000-0 18187-4 0 9994 2 37839 19.9611 275.7585 0018899 337.9334 99.5490 14.12568489272561 SRMSAT 1 37841U 11058D 17019.78420608 .00000302 00000-0 20879-4 0 9996 2 37841 19.9727 308.9383 0011737 250.6033 125.2688 14.10562273272309 AO-71 1 37854U 11061E 17018.88091546 .00002387 00000-0 13594-3 0 9999 2 37854 101.7052 176.5454 0169629 156.6150 204.2893 15.03477485284493 HRBE 1 37855U 11061F 17019.71944251 .00003636 00000-0 19882-3 0 9997 2 37855 101.7161 175.7157 0182712 159.8795 200.9740 15.02419480284498 ALMASAT-1 1 38078U 12006B 17019.75787308 .00041189 00000-0 48472-3 0 9999 2 38078 69.4437 169.7136 0337444 149.0321 213.1764 15.14759200262254 HORYU-2 1 38340U 12025D 17018.67100422 .00000254 00000-0 45606-4 0 9993 2 38340 98.3715 17.3744 0012642 51.2584 308.9752 14.75231896251243 RS-40 1 38735U 12041C 17019.73611995 .00000005 00000-0 -35925-4 0 9997 2 38735 82.4736 56.7542 0016459 355.7219 4.3717 12.42573814203255 BEESAT-3 1 39134U 13015E 17019.67236222 .00003123 00000-0 15517-3 0 9999 2 39134 64.8713 345.5690 0024530 307.7839 52.1580 15.17149719206941 BEESAT-2 1 39136U 13015G 17019.17304482 .00001364 00000-0 83543-4 0 9990 2 39136 64.8708 355.8745 0024831 303.3407 56.5341 15.14567224206708 ZACUBE-1 1 39417U 13066B 17019.41870958 .00000270 00000-0 40726-4 0 9992 2 39417 97.6513 68.7135 0060285 37.6672 322.8739 14.80600422170761 TRITON-1 1 39427U 13066M 17018.92569232 .00000224 00000-0 43606-4 0 9997 2 39427 097.6480 044.2196 0115900 106.6770 254.7196 14.67361301168966 GOMX-1 1 39430U 13066Q 17019.74393021 .00000186 00000-0 42490-4 0 9990 2 39430 97.6632 30.1324 0152790 151.3933 209.5759 14.58769556168295 LO-74 1 39440U 13066AA 17018.83825680 .00000223 00000-0 38273-4 0 9997 2 39440 97.6474 58.5389 0082178 65.3277 295.6463 14.75347681170079 AO-73 1 39444U 13066AE 17019.13292299 .00000277 00000-0 41059-4 0 9994 2 39444 97.6528 69.3066 0059400 35.9739 324.5450 14.81309849169542 SPROUT 1 39770U 14029E 17019.76354279 .00000507 00000-0 64262-4 0 9999 2 39770 97.8724 120.6684 0010732 94.2583 265.9860 14.85929491144092 DUCHIFAT-1 1 40021U 14033M 17019.79723568 .00000464 00000-0 54334-4 0 9990 2 40021 97.9245 292.7145 0014542 71.5121 288.7675 14.89686338140507 NANOSATCBR1 1 40024U 14033Q 17019.73351816 .00000404 00000-0 48865-4 0 9996 2 40024 97.9211 291.7611 0013820 72.4062 287.8663 14.89041032140459 EO-79 1 40025U 14033R 17019.16467480 .00000338 00000-0 42639-4 0 9998 2 40025 97.9200 290.4440 0013997 76.1959 284.0814 14.88277243140322 DTUSAT-2 1 40030U 14033W 17019.19960740 .00000309 00000-0 39808-4 0 9996 2 40030 97.9171 289.7387 0013411 71.0099 289.2569 14.87904124140302 EO-80 1 40032U 14033Y 17019.70603333 .00000345 00000-0 43837-4 0 9994 2 40032 97.9178 290.2520 0013347 69.8794 290.3857 14.87838565140366 ANTELSAT 1 40034U 14033AA 17019.51463301 .00000295 00000-0 51754-4 0 9995 2 40034 97.8789 267.8736 0060298 51.6784 308.9824 14.73588525139034 VELOX-1 1 40057U 14034E 17019.80459275 .00000284 00000-0 47958-4 0 9997 2 40057 98.1891 117.8461 0011494 166.9312 193.2183 14.76975316137859 DAURIA DX 1 1 40071U 14037C 17019.76209377 .00000108 00000-0 21313-4 0 9999 2 40071 98.3309 125.0452 0008647 161.1767 198.9766 14.80947103137003 UKUBE-1 1 40074U 14037F 17019.76309989 .00000324 00000-0 46648-4 0 9990 2 40074 98.3378 128.1545 0005040 155.8391 204.3066 14.83349100137175 HODOYOSHI-1 1 40299U 14070B 17019.74960502 .00000655 00000-0 31789-4 0 9995 2 40299 97.4142 104.7051 0011639 252.0303 207.4742 15.21929194122369 CHUBUSAT-1 1 40300U 14070C 17019.78352826 .00000577 00000-0 29496-4 0 9991 2 40300 97.4088 102.3438 0019140 260.8056 252.0382 15.20495113122231 QSAT-EOS 1 40301U 14070D 17019.76114529 .00001410 00000-0 63523-4 0 9992 2 40301 97.4022 102.0156 0026563 258.3616 198.1788 15.22432298122243 FIREBIRD FU3 1 40377U 15003B 17019.45931661 .00004065 00000-0 17801-3 0 9998 2 40377 99.1080 173.9780 0139611 134.6315 226.6398 15.14401297108491 FIREBIRD FU4 1 40378U 15003C 17019.71788682 .00004351 00000-0 18994-3 0 9993 2 40378 99.1082 174.3138 0139803 133.7057 227.5852 15.14422305108535 GRIFEX 1 40379U 15003D 17019.80535261 .00002714 00000-0 12649-3 0 9999 2 40379 99.1089 172.8074 0144955 139.1751 222.0443 15.12212349108450 NO-84 1 40654U 15025D 17019.42269662 .00006362 00000-0 13267-3 0 03417 2 40654 054.9981 180.0507 0188517 251.8162 106.2260 15.30311183057097 NO-83 1 40655U 15025E 17019.37396397 .00011162 00000-0 19607-3 0 03786 2 40655 054.9863 164.6923 0162269 260.4284 097.8427 15.37825344057281 DEORBITSAIL 1 40719U 15032E 17018.77311740 .00000443 00000-0 72015-4 0 9999 2 40719 97.9966 274.2646 0015301 264.5444 95.4020 14.75876058 82280 NUDT-PHONESAT 1 40900U 15049B 17019.75012550 .00002983 00000-0 14769-3 0 9997 2 40900 97.4448 29.8721 0015221 29.3443 330.8643 15.18464164 73924 XW-2A 1 40903U 15049E 17019.81162755 .00002559 00000-0 70695-4 0 9990 2 40903 97.4344 43.6647 0017043 80.1560 280.1608 15.37888319 74834 XW-2C 1 40906U 15049H 17019.76812277 .00000945 00000-0 55215-4 0 9996 2 40906 97.4544 28.2677 0015784 14.6760 345.4927 15.14199652 73776 XW-2D 1 40907U 15049J 17019.76054563 .00001013 00000-0 58798-4 0 9999 2 40907 97.4512 28.0632 0015121 13.2706 346.8921 15.14280514 73778 LILACSAT-2 1 40908U 15049K 17019.74818495 .00000552 00000-0 34921-4 0 9999 2 40908 97.4612 27.9532 0016498 9.5875 350.5668 15.12913528 73721 XW-2F 1 40910U 15049M 17019.77538688 .00001442 00000-0 80567-4 0 9994 2 40910 97.4538 28.5369 0015957 11.1400 349.0183 15.15005520 73685 XW-2B 1 40911U 15049N 17019.82941617 .00000981 00000-0 57142-4 0 9991 2 40911 97.4558 28.4285 0015017 13.3366 346.8260 15.14250820 73681 DCBB 1 40912U 15049P 17019.83680626 .00001011 00000-0 54368-4 0 9995 2 40912 97.4519 30.0090 0016269 5.0120 76.5521 15.17042833 73793 TW-1C 1 40926U 15051B 17019.80177786 .00004651 00000-0 11750-3 0 9998 2 40926 97.2500 60.6070 0012461 356.2819 93.9750 15.40231896 74062 TW-1A 1 40928U 15051D 17019.82892098 .00001738 00000-0 53584-4 0 9997 2 40928 97.2452 58.2813 0013992 18.2030 67.3846 15.34860130 73936 IO-86 1 40931U 15052B 17019.16765520 .00000096 00000-0 13413-4 0 9991 2 40931 5.9981 215.2013 0013739 295.3300 64.5837 14.76507150 70905 GomX-3 1 40949U 98067HA 16292.18357804 .08527750 12374-4 77882-3 0 9992 2 40949 51.6055 106.7696 0006699 286.1344 73.8944 16.38002265 59645 LQSat 1 40958U 15057A 17019.74901247 .00000026 00000-0 11819-4 0 9998 2 40958 97.9938 97.5580 0017912 177.2080 182.9220 14.72937703 69262 AO-85 1 40967U 15058D 17019.31518816 .00000005 00000-0 20002-4 0 03735 2 40967 064.7788 310.4088 0178107 132.8493 228.7734 14.75292318055157 ATHENOXAT-1 1 41168U 15077C 17019.79415509 .00001852 00000-0 68662-4 0 9996 2 41168 14.9851 173.0511 0011312 118.2238 109.1194 15.10988836 60551 ChubuSat-2 1 41338U 16012B 17018.92816938 .00000414 00000-0 25970-4 0 9998 2 41338 031.0044 340.1317 0013880 022.0469 338.0761 14.99621250050568 ChubuSat-3 1 41339U 16012C 17019.27656844 .00000345 00000-0 20405-4 0 9997 2 41339 31.0132 337.3089 0013726 32.0907 328.0560 14.99835809 50594 Horyu-4 1 41340U 16012D 17019.17771676 .00000615 00000-0 41034-4 0 9990 2 41340 31.0063 336.3700 0014153 37.8748 322.2881 15.00400055 50618 OUFTI-1 1 41458U 16025C 17019.23127983 .00001512 00000-0 85737-4 0 9992 2 41458 98.1991 48.2154 0177225 67.2415 294.7431 15.02390678 40201 e-st@r-II 1 41459U 16025D 17019.77200234 .00000791 00000-0 47146-4 0 9993 2 41459 98.2002 48.7676 0177862 65.5718 296.3950 15.02289803 40283 AAUSAT4 1 41460U 16025E 17019.77733878 .00001159 00000-0 67070-4 0 9997 2 41460 98.1942 48.8195 0172204 64.5496 297.3442 15.02916203 40290 MinXSS 1 41474U 98067HU 17019.54837801 .00064030 00000-0 44089-3 0 9995 2 41474 51.6436 42.6356 0001106 329.5506 30.5428 15.74006941 38809 CADRE 1 41475U 98067HV 17003.74787607 .12518598 12537-4 55989-3 0 9998 2 41475 51.6110 110.0165 0004040 312.3134 47.7551 16.43344525 36494 NODES 1 1 41477U 98067HX 17019.15432268 .00030663 00000-0 27813-3 0 9994 2 41477 51.6369 48.9438 0000728 252.6163 107.4753 15.67740943 38591 NODES 2 1 41478U 98067HY 17019.48541568 .00034411 00000-0 31317-3 0 9994 2 41478 51.6369 47.4035 0000708 262.5789 97.5126 15.67597303 38640 LO-87 1 41557U 16033B 17019.82574128 .00001582 00000-0 63441-4 0 9998 2 41557 97.4773 99.3129 0014974 164.8900 195.2788 15.26432244 35794 NuSat2 1 41558U 16033C 17019.25664483 .00001762 00000-0 70615-4 0 9991 2 41558 97.4802 98.7720 0014442 165.3693 194.7966 15.26304718 35700 Lapan A3 1 41603U 16040E 17019.79756899 .00000027 00000-0 45580-5 0 9999 2 41603 97.4829 83.3865 0012128 228.9668 268.9639 15.19242013 32122 Swayam 1 41607U 16040J 17019.45964901 .00001865 00000-0 89439-4 0 9992 2 41607 97.4816 83.1088 0013420 232.2338 127.7682 15.20087731 32008 Pratham 1 41783U 16059A 17019.38669520 .00000054 00000-0 20027-4 0 9995 2 41783 98.1889 82.1420 0032402 267.0579 92.6914 14.62797828 16846 AlSat 1N 1 41789U 16059G 17019.83948760 .00000070 00000-0 22740-4 0 9999 2 41789 98.1887 82.8093 0027070 260.9164 98.8952 14.63999331 16901 ScatSat 1 41790U 16059H 17019.01332957 -.00000550 00000-0 -13086-3 0 9993 2 41790 98.0867 75.2014 0010256 242.5876 117.4216 14.50087563 16646 TY-1 1 41844U 16066D 17019.80898145 -.00000070 00000-0 00000 0 0 9998 2 41844 97.4054 29.2526 0017902 41.4697 43.6408 15.21608553 10774 CAS-2T 1 41845U 16066E 17019.81162514 -.00000075 00000-0 00000 0 0 9999 2 41845 98.7805 31.8625 0366641 328.7363 29.2485 14.37686372 10170 Pegasus-1 1 41846U 16066F 17019.85407012 -.00000075 00000-0 00000 0 0 9999 2 41846 98.7846 31.8345 0369590 329.3151 28.6906 14.36846077 10173 STARS-C 1 41895U 98067KR 17019.48298535 .00010544 00000-0 16028-3 0 9993 2 41895 51.6432 59.4364 0006466 109.9431 250.2264 15.55140288 4802 BY70-1 1 41909U 16083C 17019.75764782 .00252046 24328-5 42731-3 0 9998 2 41909 97.5799 99.2654 0178986 280.1795 77.9680 15.79557408 3547 ITF-2 1 41930U 98067KS 17019.56008638 .00542499 00000-0 68810-2 0 9999 2 41930 51.6439 59.2145 0008389 89.4626 271.0330 15.57017498 380 WASEDA-SAT3 1 41931U 98067KT 17019.24028552 .00011121 00000-0 16971-3 0 9997 2 41931 51.6424 60.8140 0009641 74.0252 286.1759 15.54943196 332 FREEDOM 1 41932U 98067KU 17019.49759689 .00009535 00000-0 14003-3 0 9997 2 41932 51.6433 59.5366 0007920 71.1298 289.1073 15.54810443 389 EGG 1 41933U 98067KV 17019.24054383 .00010261 00000-0 15818-3 0 9993 2 41933 51.6424 60.8191 0007555 72.3750 287.8049 15.54779450 336 TuPOD-Tancredo1 1 41934U 98067KW 17019.24059181 .00006138 00000-0 97652-4 0 9990 2 41934 51.6418 60.8209 0009418 81.9571 278.2484 15.54745601 425 AOBA-V3LOX3 1 41935U 98067KX 17019.24067660 .00010169 00000-0 15720-3 0 9996 2 41935 51.6430 60.8202 0006781 80.9505 279.2242 15.54718526 439 /EX